Time,TemperatureF,DewpointF,PressureIn,WindDirection,WindDirectionDegrees,WindSpeedMPH,WindSpeedGustMPH,Humidity,HourlyPrecipIn,Conditions,Clouds,dailyrainin,SoftwareType,DateUTC
2013-04-27 00:01:00,53.4,41.9,30.01,North,-999,-999.0,-999.0,65,-99.99,,,-99.99,meteohub,2013-04-27 04:01:00,
2013-04-27 00:02:00,53.4,41.9,30.01,North,-999,-999.0,-999.0,65,-99.99,,,-99.99,meteohub,2013-04-27 04:02:00,
2013-04-27 00:07:00,53.2,42.3,30.01,North,-999,-999.0,-999.0,66,-99.99,,,-99.99,meteohub,2013-04-27 04:07:00,
2013-04-27 00:12:00,53.2,41.7,30.01,North,-999,-999.0,-999.0,65,-99.99,,,-99.99,meteohub,2013-04-27 04:12:00,
2013-04-27 00:17:00,53.4,41.9,30.01,North,-999,-999.0,-999.0,65,-99.99,,,-99.99,meteohub,2013-04-27 04:17:00,
2013-04-27 00:23:00,53.4,41.5,30.01,North,-999,-999.0,-999.0,64,-99.99,,,-99.99,meteohub,2013-04-27 04:23:00,
2013-04-27 00:28:00,53.2,41.4,30.01,North,-999,-999.0,-999.0,64,-99.99,,,-99.99,meteohub,2013-04-27 04:28:00,
2013-04-27 00:33:00,53.2,41.4,30.01,North,-999,-999.0,-999.0,64,-99.99,,,-99.99,meteohub,2013-04-27 04:33:00,
2013-04-27 00:38:00,53.2,41.4,30.01,North,-999,-999.0,-999.0,64,-99.99,,,-99.99,meteohub,2013-04-27 04:38:00,
2013-04-27 00:43:00,53.4,41.5,30.01,North,-999,-999.0,-999.0,64,-99.99,,,-99.99,meteohub,2013-04-27 04:43:00,
2013-04-27 00:48:00,53.6,41.4,30.01,North,-999,-999.0,-999.0,63,-99.99,,,-99.99,meteohub,2013-04-27 04:48:00,
2013-04-27 00:53:00,54.5,41.4,30.04,North,-999,-999.0,-999.0,61,-99.99,,,-99.99,meteohub,2013-04-27 04:53:00,
2013-04-27 00:58:00,55.4,40.8,30.04,North,-999,-999.0,-999.0,58,-99.99,,,-99.99,meteohub,2013-04-27 04:58:00,
2013-04-27 01:03:00,55.9,40.5,30.04,North,-999,-999.0,-999.0,56,-99.99,,,-99.99,meteohub,2013-04-27 05:03:00,
2013-04-27 01:08:00,56.1,40.3,30.04,North,-999,-999.0,-999.0,55,-99.99,,,-99.99,meteohub,2013-04-27 05:08:00,
2013-04-27 01:14:00,56.3,39.9,30.04,North,-999,-999.0,-999.0,54,-99.99,,,-99.99,meteohub,2013-04-27 05:14:00,
2013-04-27 01:19:00,56.5,39.6,30.04,North,-999,-999.0,-999.0,53,-99.99,,,-99.99,meteohub,2013-04-27 05:19:00,
2013-04-27 01:24:00,56.5,39.0,30.04,North,-999,-999.0,-999.0,52,-99.99,,,-99.99,meteohub,2013-04-27 05:24:00,
2013-04-27 01:29:00,56.7,39.2,30.04,North,-999,-999.0,-999.0,52,-99.99,,,-99.99,meteohub,2013-04-27 05:29:00,
2013-04-27 01:34:00,56.7,39.2,30.01,North,-999,-999.0,-999.0,52,-99.99,,,-99.99,meteohub,2013-04-27 05:34:00,
2013-04-27 01:39:00,56.7,40.3,30.01,North,-999,-999.0,-999.0,54,-99.99,,,-99.99,meteohub,2013-04-27 05:39:00,
2013-04-27 01:44:00,56.5,40.1,30.01,North,-999,-999.0,-999.0,54,-99.99,,,-99.99,meteohub,2013-04-27 05:44:00,
2013-04-27 01:49:00,56.5,39.6,30.04,North,-999,-999.0,-999.0,53,-99.99,,,-99.99,meteohub,2013-04-27 05:49:00,
2013-04-27 01:54:00,56.7,39.2,30.04,North,-999,-999.0,-999.0,52,-99.99,,,-99.99,meteohub,2013-04-27 05:54:00,
2013-04-27 01:59:00,56.7,39.2,30.04,North,-999,-999.0,-999.0,52,-99.99,,,-99.99,meteohub,2013-04-27 05:59:00,
2013-04-27 02:05:00,56.7,39.2,30.01,North,-999,-999.0,-999.0,52,-99.99,,,-99.99,meteohub,2013-04-27 06:05:00,
2013-04-27 02:10:00,56.7,39.2,30.01,North,-999,-999.0,-999.0,52,-99.99,,,-99.99,meteohub,2013-04-27 06:10:00,
2013-04-27 02:15:00,56.7,39.2,30.01,North,-999,-999.0,-999.0,52,-99.99,,,-99.99,meteohub,2013-04-27 06:15:00,
2013-04-27 02:20:00,56.7,39.2,30.01,North,-999,-999.0,-999.0,52,-99.99,,,-99.99,meteohub,2013-04-27 06:20:00,
2013-04-27 02:25:00,56.7,39.2,30.01,North,-999,-999.0,-999.0,52,-99.99,,,-99.99,meteohub,2013-04-27 06:25:00,
2013-04-27 02:30:00,56.8,39.4,30.01,North,-999,-999.0,-999.0,52,-99.99,,,-99.99,meteohub,2013-04-27 06:30:00,
2013-04-27 02:35:00,56.7,39.2,30.04,North,-999,-999.0,-999.0,52,-99.99,,,-99.99,meteohub,2013-04-27 06:35:00,
2013-04-27 02:40:00,56.8,39.4,30.04,North,-999,-999.0,-999.0,52,-99.99,,,-99.99,meteohub,2013-04-27 06:40:00,
2013-04-27 02:45:00,56.8,39.4,30.04,North,-999,-999.0,-999.0,52,-99.99,,,-99.99,meteohub,2013-04-27 06:45:00,
2013-04-27 02:50:00,56.8,39.9,30.04,North,-999,-999.0,-999.0,53,-99.99,,,-99.99,meteohub,2013-04-27 06:50:00,
2013-04-27 02:56:00,56.8,39.4,30.04,North,-999,-999.0,-999.0,52,-99.99,,,-99.99,meteohub,2013-04-27 06:56:00,
2013-04-27 03:01:00,56.8,39.4,30.04,North,-999,-999.0,-999.0,52,-99.99,,,-99.99,meteohub,2013-04-27 07:01:00,
2013-04-27 03:06:00,56.8,39.4,30.01,North,-999,-999.0,-999.0,52,-99.99,,,-99.99,meteohub,2013-04-27 07:06:00,
2013-04-27 03:11:00,56.7,39.2,30.01,North,-999,-999.0,-999.0,52,-99.99,,,-99.99,meteohub,2013-04-27 07:11:00,
2013-04-27 03:16:00,56.7,39.2,30.01,North,-999,-999.0,-999.0,52,-99.99,,,-99.99,meteohub,2013-04-27 07:16:00,
2013-04-27 03:21:00,56.7,39.7,30.04,North,-999,-999.0,-999.0,53,-99.99,,,-99.99,meteohub,2013-04-27 07:21:00,
2013-04-27 03:26:00,56.7,39.7,30.04,North,-999,-999.0,-999.0,53,-99.99,,,-99.99,meteohub,2013-04-27 07:26:00,
2013-04-27 03:31:00,56.5,39.6,30.04,North,-999,-999.0,-999.0,53,-99.99,,,-99.99,meteohub,2013-04-27 07:31:00,
2013-04-27 03:36:00,56.3,39.4,30.01,North,-999,-999.0,-999.0,53,-99.99,,,-99.99,meteohub,2013-04-27 07:36:00,
2013-04-27 03:41:00,56.3,39.4,30.01,North,-999,-999.0,-999.0,53,-99.99,,,-99.99,meteohub,2013-04-27 07:41:00,
2013-04-27 03:47:00,56.1,39.7,30.01,North,-999,-999.0,-999.0,54,-99.99,,,-99.99,meteohub,2013-04-27 07:47:00,
2013-04-27 03:52:00,56.1,39.7,30.01,North,-999,-999.0,-999.0,54,-99.99,,,-99.99,meteohub,2013-04-27 07:52:00,
2013-04-27 03:57:00,55.9,40.1,30.01,North,-999,-999.0,-999.0,55,-99.99,,,-99.99,meteohub,2013-04-27 07:57:00,
2013-04-27 04:02:00,55.9,40.5,30.01,North,-999,-999.0,-999.0,56,-99.99,,,-99.99,meteohub,2013-04-27 08:02:00,
2013-04-27 04:07:00,55.8,39.9,30.01,North,-999,-999.0,-999.0,55,-99.99,,,-99.99,meteohub,2013-04-27 08:07:00,
2013-04-27 04:12:00,55.6,40.1,30.01,North,-999,-999.0,-999.0,56,-99.99,,,-99.99,meteohub,2013-04-27 08:12:00,
2013-04-27 04:17:00,55.4,39.9,30.01,North,-999,-999.0,-999.0,56,-99.99,,,-99.99,meteohub,2013-04-27 08:17:00,
2013-04-27 04:22:00,55.4,40.5,30.01,North,-999,-999.0,-999.0,57,-99.99,,,-99.99,meteohub,2013-04-27 08:22:00,
2013-04-27 04:27:00,55.2,40.3,30.01,North,-999,-999.0,-999.0,57,-99.99,,,-99.99,meteohub,2013-04-27 08:27:00,
2013-04-27 04:32:00,55.0,40.6,30.01,North,-999,-999.0,-999.0,58,-99.99,,,-99.99,meteohub,2013-04-27 08:32:00,
2013-04-27 04:37:00,55.0,41.0,30.01,North,-999,-999.0,-999.0,59,-99.99,,,-99.99,meteohub,2013-04-27 08:37:00,
2013-04-27 04:42:00,54.9,41.2,30.01,North,-999,-999.0,-999.0,60,-99.99,,,-99.99,meteohub,2013-04-27 08:42:00,
2013-04-27 04:47:00,54.9,41.2,30.01,North,-999,-999.0,-999.0,60,-99.99,,,-99.99,meteohub,2013-04-27 08:47:00,
2013-04-27 04:52:00,54.7,41.2,30.01,North,-999,-999.0,-999.0,60,-99.99,,,-99.99,meteohub,2013-04-27 08:52:00,
2013-04-27 04:57:00,54.5,41.0,30.01,North,-999,-999.0,-999.0,60,-99.99,,,-99.99,meteohub,2013-04-27 08:57:00,
2013-04-27 05:02:00,54.5,41.0,30.01,North,-999,-999.0,-999.0,60,-99.99,,,-99.99,meteohub,2013-04-27 09:02:00,
2013-04-27 05:07:00,54.3,41.2,30.01,North,-999,-999.0,-999.0,61,-99.99,,,-99.99,meteohub,2013-04-27 09:07:00,
2013-04-27 05:12:00,54.3,41.5,30.01,North,-999,-999.0,-999.0,62,-99.99,,,-99.99,meteohub,2013-04-27 09:12:00,
2013-04-27 05:17:00,54.1,41.4,30.01,North,-999,-999.0,-999.0,62,-99.99,,,-99.99,meteohub,2013-04-27 09:17:00,
2013-04-27 05:22:00,54.1,41.4,30.01,North,-999,-999.0,-999.0,62,-99.99,,,-99.99,meteohub,2013-04-27 09:22:00,
2013-04-27 05:27:00,54.0,41.7,30.01,North,-999,-999.0,-999.0,63,-99.99,,,-99.99,meteohub,2013-04-27 09:27:00,
2013-04-27 05:32:00,54.0,41.7,30.01,North,-999,-999.0,-999.0,63,-99.99,,,-99.99,meteohub,2013-04-27 09:32:00,
2013-04-27 05:37:00,53.8,41.5,30.01,North,-999,-999.0,-999.0,63,-99.99,,,-99.99,meteohub,2013-04-27 09:37:00,
2013-04-27 05:42:00,53.8,41.9,30.01,North,-999,-999.0,-999.0,64,-99.99,,,-99.99,meteohub,2013-04-27 09:42:00,
2013-04-27 05:47:00,53.6,42.1,30.01,North,-999,-999.0,-999.0,65,-99.99,,,-99.99,meteohub,2013-04-27 09:47:00,
2013-04-27 05:52:00,53.6,42.1,30.01,North,-999,-999.0,-999.0,65,-99.99,,,-99.99,meteohub,2013-04-27 09:52:00,
2013-04-27 05:57:00,53.6,42.1,30.01,North,-999,-999.0,-999.0,65,-99.99,,,-99.99,meteohub,2013-04-27 09:57:00,
2013-04-27 06:02:00,53.6,42.1,30.01,North,-999,-999.0,-999.0,65,-99.99,,,-99.99,meteohub,2013-04-27 10:02:00,
2013-04-27 06:07:00,53.6,42.1,30.01,North,-999,-999.0,-999.0,65,-99.99,,,-99.99,meteohub,2013-04-27 10:07:00,
2013-04-27 06:12:00,53.6,42.6,30.01,North,-999,-999.0,-999.0,66,-99.99,,,-99.99,meteohub,2013-04-27 10:12:00,
2013-04-27 06:17:00,53.6,42.6,30.01,North,-999,-999.0,-999.0,66,-99.99,,,-99.99,meteohub,2013-04-27 10:17:00,
2013-04-27 06:22:00,53.4,42.4,30.01,North,-999,-999.0,-999.0,66,-99.99,,,-99.99,meteohub,2013-04-27 10:22:00,
2013-04-27 06:27:00,53.4,42.8,30.01,North,-999,-999.0,-999.0,67,-99.99,,,-99.99,meteohub,2013-04-27 10:27:00,
2013-04-27 06:32:00,53.2,42.6,30.01,North,-999,-999.0,-999.0,67,-99.99,,,-99.99,meteohub,2013-04-27 10:32:00,
2013-04-27 06:37:00,53.2,43.0,30.01,North,-999,-999.0,-999.0,68,-99.99,,,-99.99,meteohub,2013-04-27 10:37:00,
2013-04-27 06:42:00,53.2,43.0,30.01,North,-999,-999.0,-999.0,68,-99.99,,,-99.99,meteohub,2013-04-27 10:42:00,
2013-04-27 06:47:00,53.2,43.0,30.01,North,-999,-999.0,-999.0,68,-99.99,,,-99.99,meteohub,2013-04-27 10:47:00,
2013-04-27 06:52:00,53.2,43.0,30.01,North,-999,-999.0,-999.0,68,-99.99,,,-99.99,meteohub,2013-04-27 10:52:00,
2013-04-27 06:57:00,53.2,43.3,30.01,North,-999,-999.0,-999.0,69,-99.99,,,-99.99,meteohub,2013-04-27 10:57:00,
2013-04-27 07:02:00,53.1,43.2,30.01,North,-999,-999.0,-999.0,69,-99.99,,,-99.99,meteohub,2013-04-27 11:02:00,
2013-04-27 07:07:00,53.2,43.3,30.01,North,-999,-999.0,-999.0,69,-99.99,,,-99.99,meteohub,2013-04-27 11:07:00,
2013-04-27 07:12:00,53.2,43.3,30.01,North,-999,-999.0,-999.0,69,-99.99,,,-99.99,meteohub,2013-04-27 11:12:00,
2013-04-27 07:17:00,53.2,43.3,30.01,North,-999,-999.0,-999.0,69,-99.99,,,-99.99,meteohub,2013-04-27 11:17:00,
2013-04-27 07:22:00,53.4,43.5,30.01,North,-999,-999.0,-999.0,69,-99.99,,,-99.99,meteohub,2013-04-27 11:22:00,
2013-04-27 07:27:00,53.4,43.5,30.01,North,-999,-999.0,-999.0,69,-99.99,,,-99.99,meteohub,2013-04-27 11:27:00,
2013-04-27 07:32:00,53.6,43.7,30.01,North,-999,-999.0,-999.0,69,-99.99,,,-99.99,meteohub,2013-04-27 11:32:00,
2013-04-27 07:37:00,54.0,44.1,30.04,North,-999,-999.0,-999.0,69,-99.99,,,-99.99,meteohub,2013-04-27 11:37:00,
2013-04-27 07:42:00,54.3,44.4,30.04,North,-999,-999.0,-999.0,69,-99.99,,,-99.99,meteohub,2013-04-27 11:42:00,
2013-04-27 07:47:00,54.5,44.2,30.04,North,-999,-999.0,-999.0,68,-99.99,,,-99.99,meteohub,2013-04-27 11:47:00,
2013-04-27 07:52:00,54.9,44.6,30.04,North,-999,-999.0,-999.0,68,-99.99,,,-99.99,meteohub,2013-04-27 11:52:00,
2013-04-27 07:57:00,55.4,44.6,30.04,North,-999,-999.0,-999.0,67,-99.99,,,-99.99,meteohub,2013-04-27 11:57:00,
2013-04-27 08:02:00,56.1,45.3,30.04,North,-999,-999.0,-999.0,67,-99.99,,,-99.99,meteohub,2013-04-27 12:02:00,
2013-04-27 08:07:00,56.7,45.9,30.04,North,-999,-999.0,-999.0,67,-99.99,,,-99.99,meteohub,2013-04-27 12:07:00,
2013-04-27 08:12:00,56.8,45.7,30.04,North,-999,-999.0,-999.0,66,-99.99,,,-99.99,meteohub,2013-04-27 12:12:00,
2013-04-27 08:17:00,57.4,46.2,30.04,North,-999,-999.0,-999.0,66,-99.99,,,-99.99,meteohub,2013-04-27 12:17:00,
2013-04-27 08:22:00,57.7,46.4,30.04,North,-999,-999.0,-999.0,66,-99.99,,,-99.99,meteohub,2013-04-27 12:22:00,
2013-04-27 08:27:00,58.1,46.8,30.04,North,-999,-999.0,-999.0,66,-99.99,,,-99.99,meteohub,2013-04-27 12:27:00,
2013-04-27 08:32:00,58.8,47.5,30.04,North,-999,-999.0,-999.0,66,-99.99,,,-99.99,meteohub,2013-04-27 12:32:00,
2013-04-27 08:37:00,59.0,46.9,30.04,North,-999,-999.0,-999.0,64,-99.99,,,-99.99,meteohub,2013-04-27 12:37:00,
2013-04-27 08:42:00,59.4,47.7,30.04,North,-999,-999.0,-999.0,65,-99.99,,,-99.99,meteohub,2013-04-27 12:42:00,
2013-04-27 08:47:00,59.5,47.3,30.04,North,-999,-999.0,-999.0,64,-99.99,,,-99.99,meteohub,2013-04-27 12:47:00,
2013-04-27 08:52:00,59.7,48.0,30.04,North,-999,-999.0,-999.0,65,-99.99,,,-99.99,meteohub,2013-04-27 12:52:00,
2013-04-27 08:57:00,59.9,47.7,30.04,North,-999,-999.0,-999.0,64,-99.99,,,-99.99,meteohub,2013-04-27 12:57:00,
2013-04-27 09:02:00,59.7,47.1,30.04,North,-999,-999.0,-999.0,63,-99.99,,,-99.99,meteohub,2013-04-27 13:02:00,
2013-04-27 09:07:00,59.7,46.8,30.04,North,-999,-999.0,-999.0,62,-99.99,,,-99.99,meteohub,2013-04-27 13:07:00,
2013-04-27 09:12:00,59.7,46.8,30.04,North,-999,-999.0,-999.0,62,-99.99,,,-99.99,meteohub,2013-04-27 13:12:00,
2013-04-27 09:17:00,59.9,47.3,30.04,North,-999,-999.0,-999.0,63,-99.99,,,-99.99,meteohub,2013-04-27 13:17:00,
2013-04-27 09:22:00,60.1,47.1,30.04,North,-999,-999.0,-999.0,62,-99.99,,,-99.99,meteohub,2013-04-27 13:22:00,
2013-04-27 09:27:00,60.4,47.8,30.04,North,-999,-999.0,-999.0,63,-99.99,,,-99.99,meteohub,2013-04-27 13:27:00,
2013-04-27 09:32:00,61.0,47.8,30.04,North,-999,-999.0,-999.0,62,-99.99,,,-99.99,meteohub,2013-04-27 13:32:00,
2013-04-27 09:37:00,61.3,48.2,30.04,North,-999,-999.0,-999.0,62,-99.99,,,-99.99,meteohub,2013-04-27 13:37:00,
2013-04-27 09:42:00,61.7,47.7,30.04,North,-999,-999.0,-999.0,60,-99.99,,,-99.99,meteohub,2013-04-27 13:42:00,
2013-04-27 09:48:00,61.7,47.3,30.04,North,-999,-999.0,-999.0,59,-99.99,,,-99.99,meteohub,2013-04-27 13:48:00,
2013-04-27 09:53:00,62.2,47.8,30.04,North,-999,-999.0,-999.0,59,-99.99,,,-99.99,meteohub,2013-04-27 13:53:00,
2013-04-27 09:58:00,62.8,47.8,30.04,North,-999,-999.0,-999.0,58,-99.99,,,-99.99,meteohub,2013-04-27 13:58:00,
2013-04-27 10:04:00,63.1,47.1,30.04,North,-999,-999.0,-999.0,56,-99.99,,,-99.99,meteohub,2013-04-27 14:04:00,
2013-04-27 10:09:00,63.5,45.1,30.04,North,-999,-999.0,-999.0,51,-99.99,,,-99.99,meteohub,2013-04-27 14:09:00,
2013-04-27 10:14:00,63.7,44.8,30.04,North,-999,-999.0,-999.0,50,-99.99,,,-99.99,meteohub,2013-04-27 14:14:00,
2013-04-27 10:19:00,64.2,43.0,30.04,North,-999,-999.0,-999.0,46,-99.99,,,-99.99,meteohub,2013-04-27 14:19:00,
2013-04-27 10:24:00,64.4,42.6,30.04,North,-999,-999.0,-999.0,45,-99.99,,,-99.99,meteohub,2013-04-27 14:24:00,
2013-04-27 10:29:00,64.8,41.7,30.04,North,-999,-999.0,-999.0,43,-99.99,,,-99.99,meteohub,2013-04-27 14:29:00,
2013-04-27 10:34:00,65.1,41.5,30.04,North,-999,-999.0,-999.0,42,-99.99,,,-99.99,meteohub,2013-04-27 14:34:00,
2013-04-27 10:39:00,65.5,41.9,30.04,North,-999,-999.0,-999.0,42,-99.99,,,-99.99,meteohub,2013-04-27 14:39:00,
2013-04-27 10:44:00,65.7,40.6,30.04,North,-999,-999.0,-999.0,40,-99.99,,,-99.99,meteohub,2013-04-27 14:44:00,
2013-04-27 10:49:00,66.0,39.7,30.01,North,-999,-999.0,-999.0,38,-99.99,,,-99.99,meteohub,2013-04-27 14:49:00,
2013-04-27 10:55:00,66.2,39.2,30.01,North,-999,-999.0,-999.0,37,-99.99,,,-99.99,meteohub,2013-04-27 14:55:00,
2013-04-27 11:00:00,66.6,40.3,30.01,North,-999,-999.0,-999.0,38,-99.99,,,-99.99,meteohub,2013-04-27 15:00:00,
2013-04-27 11:05:00,66.9,39.9,30.04,North,-999,-999.0,-999.0,37,-99.99,,,-99.99,meteohub,2013-04-27 15:05:00,
2013-04-27 11:10:00,67.1,40.6,30.04,North,-999,-999.0,-999.0,38,-99.99,,,-99.99,meteohub,2013-04-27 15:10:00,
2013-04-27 11:15:00,67.6,40.5,30.04,North,-999,-999.0,-999.0,37,-99.99,,,-99.99,meteohub,2013-04-27 15:15:00,
2013-04-27 11:20:00,68.0,40.8,30.04,North,-999,-999.0,-999.0,37,-99.99,,,-99.99,meteohub,2013-04-27 15:20:00,
2013-04-27 11:25:00,68.4,39.7,30.04,North,-999,-999.0,-999.0,35,-99.99,,,-99.99,meteohub,2013-04-27 15:25:00,
2013-04-27 11:30:00,68.2,38.8,30.04,North,-999,-999.0,-999.0,34,-99.99,,,-99.99,meteohub,2013-04-27 15:30:00,
2013-04-27 11:35:00,69.3,40.5,30.01,North,-999,-999.0,-999.0,35,-99.99,,,-99.99,meteohub,2013-04-27 15:35:00,
2013-04-27 11:40:00,69.8,40.3,30.01,North,-999,-999.0,-999.0,34,-99.99,,,-99.99,meteohub,2013-04-27 15:40:00,
2013-04-27 11:46:00,69.4,39.2,30.01,North,-999,-999.0,-999.0,33,-99.99,,,-99.99,meteohub,2013-04-27 15:46:00,
2013-04-27 11:51:00,70.0,39.6,30.01,North,-999,-999.0,-999.0,33,-99.99,,,-99.99,meteohub,2013-04-27 15:51:00,
2013-04-27 11:56:00,70.3,39.9,30.01,North,-999,-999.0,-999.0,33,-99.99,,,-99.99,meteohub,2013-04-27 15:56:00,
2013-04-27 12:01:00,70.9,40.5,30.01,North,-999,-999.0,-999.0,33,-99.99,,,-99.99,meteohub,2013-04-27 16:01:00,
2013-04-27 12:06:00,71.6,40.3,30.01,North,-999,-999.0,-999.0,32,-99.99,,,-99.99,meteohub,2013-04-27 16:06:00,
2013-04-27 12:11:00,71.6,40.3,30.01,North,-999,-999.0,-999.0,32,-99.99,,,-99.99,meteohub,2013-04-27 16:11:00,
2013-04-27 12:16:00,72.3,40.8,30.01,North,-999,-999.0,-999.0,32,-99.99,,,-99.99,meteohub,2013-04-27 16:16:00,
2013-04-27 12:21:00,72.3,40.8,30.01,North,-999,-999.0,-999.0,32,-99.99,,,-99.99,meteohub,2013-04-27 16:21:00,
2013-04-27 12:26:00,72.5,41.0,30.01,North,-999,-999.0,-999.0,32,-99.99,,,-99.99,meteohub,2013-04-27 16:26:00,
2013-04-27 12:32:00,73.0,41.5,30.01,North,-999,-999.0,-999.0,32,-99.99,,,-99.99,meteohub,2013-04-27 16:32:00,
2013-04-27 12:37:00,73.4,41.0,30.01,North,-999,-999.0,-999.0,31,-99.99,,,-99.99,meteohub,2013-04-27 16:37:00,
2013-04-27 12:42:00,73.9,42.3,30.01,North,-999,-999.0,-999.0,32,-99.99,,,-99.99,meteohub,2013-04-27 16:42:00,
2013-04-27 12:47:00,73.2,40.8,30.01,North,-999,-999.0,-999.0,31,-99.99,,,-99.99,meteohub,2013-04-27 16:47:00,
2013-04-27 12:52:00,72.9,39.6,30.01,North,-999,-999.0,-999.0,30,-99.99,,,-99.99,meteohub,2013-04-27 16:52:00,
2013-04-27 12:57:00,73.4,41.0,30.01,North,-999,-999.0,-999.0,31,-99.99,,,-99.99,meteohub,2013-04-27 16:57:00,
2013-04-27 13:02:00,73.6,41.2,30.01,North,-999,-999.0,-999.0,31,-99.99,,,-99.99,meteohub,2013-04-27 17:02:00,
2013-04-27 13:07:00,74.1,41.5,29.99,North,-999,-999.0,-999.0,31,-99.99,,,-99.99,meteohub,2013-04-27 17:07:00,
2013-04-27 13:12:00,73.6,38.5,29.99,North,-999,-999.0,-999.0,28,-99.99,,,-99.99,meteohub,2013-04-27 17:12:00,
2013-04-27 13:17:00,74.5,41.9,29.99,North,-999,-999.0,-999.0,31,-99.99,,,-99.99,meteohub,2013-04-27 17:17:00,
2013-04-27 13:22:00,74.5,41.0,29.99,North,-999,-999.0,-999.0,30,-99.99,,,-99.99,meteohub,2013-04-27 17:22:00,
2013-04-27 13:27:00,74.8,41.4,29.99,North,-999,-999.0,-999.0,30,-99.99,,,-99.99,meteohub,2013-04-27 17:27:00,
2013-04-27 13:32:00,74.8,41.4,29.99,North,-999,-999.0,-999.0,30,-99.99,,,-99.99,meteohub,2013-04-27 17:32:00,
2013-04-27 13:37:00,75.0,41.5,29.99,North,-999,-999.0,-999.0,30,-99.99,,,-99.99,meteohub,2013-04-27 17:37:00,
2013-04-27 13:42:00,74.8,39.6,29.99,North,-999,-999.0,-999.0,28,-99.99,,,-99.99,meteohub,2013-04-27 17:42:00,
2013-04-27 13:47:00,74.8,40.5,29.99,North,-999,-999.0,-999.0,29,-99.99,,,-99.99,meteohub,2013-04-27 17:47:00,
2013-04-27 13:52:00,75.7,41.2,29.99,North,-999,-999.0,-999.0,29,-99.99,,,-99.99,meteohub,2013-04-27 17:52:00,
2013-04-27 13:57:00,75.9,40.5,29.99,North,-999,-999.0,-999.0,28,-99.99,,,-99.99,meteohub,2013-04-27 17:57:00,
2013-04-27 14:02:00,75.0,40.6,29.99,North,-999,-999.0,-999.0,29,-99.99,,,-99.99,meteohub,2013-04-27 18:02:00,
2013-04-27 14:07:00,75.0,40.6,29.99,North,-999,-999.0,-999.0,29,-99.99,,,-99.99,meteohub,2013-04-27 18:07:00,
2013-04-27 14:12:00,74.8,40.5,29.99,North,-999,-999.0,-999.0,29,-99.99,,,-99.99,meteohub,2013-04-27 18:12:00,
2013-04-27 14:17:00,74.7,39.4,29.99,North,-999,-999.0,-999.0,28,-99.99,,,-99.99,meteohub,2013-04-27 18:17:00,
2013-04-27 14:22:00,74.8,39.6,29.99,North,-999,-999.0,-999.0,28,-99.99,,,-99.99,meteohub,2013-04-27 18:22:00,
2013-04-27 14:27:00,74.3,39.2,29.99,North,-999,-999.0,-999.0,28,-99.99,,,-99.99,meteohub,2013-04-27 18:27:00,
2013-04-27 14:32:00,74.8,40.5,29.99,North,-999,-999.0,-999.0,29,-99.99,,,-99.99,meteohub,2013-04-27 18:32:00,
2013-04-27 14:37:00,74.8,41.4,29.99,North,-999,-999.0,-999.0,30,-99.99,,,-99.99,meteohub,2013-04-27 18:37:00,
2013-04-27 14:42:00,74.7,40.3,29.99,North,-999,-999.0,-999.0,29,-99.99,,,-99.99,meteohub,2013-04-27 18:42:00,
2013-04-27 14:47:00,74.1,39.9,29.99,North,-999,-999.0,-999.0,29,-99.99,,,-99.99,meteohub,2013-04-27 18:47:00,
2013-04-27 14:52:00,73.8,39.6,29.99,North,-999,-999.0,-999.0,29,-99.99,,,-99.99,meteohub,2013-04-27 18:52:00,
2013-04-27 14:57:00,73.9,39.7,29.99,North,-999,-999.0,-999.0,29,-99.99,,,-99.99,meteohub,2013-04-27 18:57:00,
2013-04-27 15:02:00,73.2,39.0,29.99,North,-999,-999.0,-999.0,29,-99.99,,,-99.99,meteohub,2013-04-27 19:02:00,
2013-04-27 15:07:00,73.2,39.0,29.99,North,-999,-999.0,-999.0,29,-99.99,,,-99.99,meteohub,2013-04-27 19:07:00,
2013-04-27 15:12:00,73.2,39.9,29.99,North,-999,-999.0,-999.0,30,-99.99,,,-99.99,meteohub,2013-04-27 19:12:00,
2013-04-27 15:17:00,73.0,39.7,29.99,North,-999,-999.0,-999.0,30,-99.99,,,-99.99,meteohub,2013-04-27 19:17:00,
2013-04-27 15:22:00,73.0,39.7,29.99,North,-999,-999.0,-999.0,30,-99.99,,,-99.99,meteohub,2013-04-27 19:22:00,
2013-04-27 15:27:00,72.7,39.6,29.99,North,-999,-999.0,-999.0,30,-99.99,,,-99.99,meteohub,2013-04-27 19:27:00,
2013-04-27 15:32:00,72.5,40.1,29.99,North,-999,-999.0,-999.0,31,-99.99,,,-99.99,meteohub,2013-04-27 19:32:00,
2013-04-27 15:37:00,72.3,40.1,29.99,North,-999,-999.0,-999.0,31,-99.99,,,-99.99,meteohub,2013-04-27 19:37:00,
2013-04-27 15:42:00,72.3,40.1,29.99,North,-999,-999.0,-999.0,31,-99.99,,,-99.99,meteohub,2013-04-27 19:42:00,
2013-04-27 15:47:00,72.5,40.1,29.99,North,-999,-999.0,-999.0,31,-99.99,,,-99.99,meteohub,2013-04-27 19:47:00,
2013-04-27 15:52:00,72.5,40.1,29.99,North,-999,-999.0,-999.0,31,-99.99,,,-99.99,meteohub,2013-04-27 19:52:00,
2013-04-27 15:57:00,72.1,39.9,29.99,North,-999,-999.0,-999.0,31,-99.99,,,-99.99,meteohub,2013-04-27 19:57:00,
2013-04-27 16:02:00,71.8,39.6,29.99,North,-999,-999.0,-999.0,31,-99.99,,,-99.99,meteohub,2013-04-27 20:02:00,
2013-04-27 16:08:00,71.6,39.4,29.96,North,-999,-999.0,-999.0,31,-99.99,,,-99.99,meteohub,2013-04-27 20:08:00,
2013-04-27 16:13:00,71.6,39.4,29.96,North,-999,-999.0,-999.0,31,-99.99,,,-99.99,meteohub,2013-04-27 20:13:00,
2013-04-27 16:18:00,71.4,40.1,29.96,North,-999,-999.0,-999.0,32,-99.99,,,-99.99,meteohub,2013-04-27 20:18:00,
2013-04-27 16:23:00,71.4,40.1,29.99,North,-999,-999.0,-999.0,32,-99.99,,,-99.99,meteohub,2013-04-27 20:23:00,
2013-04-27 16:28:00,71.4,40.1,29.99,North,-999,-999.0,-999.0,32,-99.99,,,-99.99,meteohub,2013-04-27 20:28:00,
2013-04-27 16:33:00,71.4,40.1,29.99,North,-999,-999.0,-999.0,32,-99.99,,,-99.99,meteohub,2013-04-27 20:33:00,
2013-04-27 16:38:00,71.2,39.9,29.96,North,-999,-999.0,-999.0,32,-99.99,,,-99.99,meteohub,2013-04-27 20:38:00,
2013-04-27 16:43:00,71.2,39.9,29.96,North,-999,-999.0,-999.0,32,-99.99,,,-99.99,meteohub,2013-04-27 20:43:00,
2013-04-27 16:48:00,71.1,39.7,29.96,North,-999,-999.0,-999.0,32,-99.99,,,-99.99,meteohub,2013-04-27 20:48:00,
2013-04-27 16:53:00,71.1,39.7,29.96,North,-999,-999.0,-999.0,32,-99.99,,,-99.99,meteohub,2013-04-27 20:53:00,
2013-04-27 16:59:00,70.9,40.5,29.96,North,-999,-999.0,-999.0,33,-99.99,,,-99.99,meteohub,2013-04-27 20:59:00,
2013-04-27 17:04:00,70.5,39.2,29.96,North,-999,-999.0,-999.0,32,-99.99,,,-99.99,meteohub,2013-04-27 21:04:00,
2013-04-27 17:09:00,70.5,39.2,29.96,North,-999,-999.0,-999.0,32,-99.99,,,-99.99,meteohub,2013-04-27 21:09:00,
2013-04-27 17:14:00,70.5,39.2,29.96,North,-999,-999.0,-999.0,32,-99.99,,,-99.99,meteohub,2013-04-27 21:14:00,
2013-04-27 17:19:00,70.3,39.2,29.96,North,-999,-999.0,-999.0,32,-99.99,,,-99.99,meteohub,2013-04-27 21:19:00,
2013-04-27 17:24:00,70.3,39.2,29.96,North,-999,-999.0,-999.0,32,-99.99,,,-99.99,meteohub,2013-04-27 21:24:00,
2013-04-27 17:29:00,70.3,39.2,29.96,North,-999,-999.0,-999.0,32,-99.99,,,-99.99,meteohub,2013-04-27 21:29:00,
2013-04-27 17:34:00,70.3,39.9,29.96,North,-999,-999.0,-999.0,33,-99.99,,,-99.99,meteohub,2013-04-27 21:34:00,
2013-04-27 17:39:00,70.3,39.9,29.96,North,-999,-999.0,-999.0,33,-99.99,,,-99.99,meteohub,2013-04-27 21:39:00,
2013-04-27 17:44:00,70.3,39.9,29.96,North,-999,-999.0,-999.0,33,-99.99,,,-99.99,meteohub,2013-04-27 21:44:00,
2013-04-27 17:50:00,70.2,39.7,29.96,North,-999,-999.0,-999.0,33,-99.99,,,-99.99,meteohub,2013-04-27 21:50:00,
2013-04-27 17:55:00,70.0,40.3,29.96,North,-999,-999.0,-999.0,34,-99.99,,,-99.99,meteohub,2013-04-27 21:55:00,
2013-04-27 18:00:00,70.2,40.5,29.96,North,-999,-999.0,-999.0,34,-99.99,,,-99.99,meteohub,2013-04-27 22:00:00,
2013-04-27 18:05:00,70.2,40.5,29.96,North,-999,-999.0,-999.0,34,-99.99,,,-99.99,meteohub,2013-04-27 22:05:00,
2013-04-27 18:10:00,70.0,40.3,29.96,North,-999,-999.0,-999.0,34,-99.99,,,-99.99,meteohub,2013-04-27 22:10:00,
2013-04-27 18:15:00,69.8,40.3,29.96,North,-999,-999.0,-999.0,34,-99.99,,,-99.99,meteohub,2013-04-27 22:15:00,
2013-04-27 18:20:00,69.8,40.3,29.96,North,-999,-999.0,-999.0,34,-99.99,,,-99.99,meteohub,2013-04-27 22:20:00,
2013-04-27 18:25:00,69.6,40.8,29.96,North,-999,-999.0,-999.0,35,-99.99,,,-99.99,meteohub,2013-04-27 22:25:00,
2013-04-27 18:31:00,69.4,40.6,29.96,North,-999,-999.0,-999.0,35,-99.99,,,-99.99,meteohub,2013-04-27 22:31:00,
2013-04-27 18:36:00,69.4,40.6,29.96,North,-999,-999.0,-999.0,35,-99.99,,,-99.99,meteohub,2013-04-27 22:36:00,
2013-04-27 18:41:00,69.3,40.5,29.96,North,-999,-999.0,-999.0,35,-99.99,,,-99.99,meteohub,2013-04-27 22:41:00,
2013-04-27 18:46:00,69.3,40.5,29.96,North,-999,-999.0,-999.0,35,-99.99,,,-99.99,meteohub,2013-04-27 22:46:00,
2013-04-27 18:51:00,69.1,40.3,29.96,North,-999,-999.0,-999.0,35,-99.99,,,-99.99,meteohub,2013-04-27 22:51:00,
2013-04-27 18:56:00,69.1,40.3,29.96,North,-999,-999.0,-999.0,35,-99.99,,,-99.99,meteohub,2013-04-27 22:56:00,
2013-04-27 19:01:00,68.9,40.1,29.96,North,-999,-999.0,-999.0,35,-99.99,,,-99.99,meteohub,2013-04-27 23:01:00,
2013-04-27 19:06:00,68.7,40.6,29.96,North,-999,-999.0,-999.0,36,-99.99,,,-99.99,meteohub,2013-04-27 23:06:00,
2013-04-27 19:11:00,68.5,40.6,29.96,North,-999,-999.0,-999.0,36,-99.99,,,-99.99,meteohub,2013-04-27 23:11:00,
2013-04-27 19:16:00,68.2,40.3,29.96,North,-999,-999.0,-999.0,36,-99.99,,,-99.99,meteohub,2013-04-27 23:16:00,
2013-04-27 19:22:00,68.2,41.0,29.96,North,-999,-999.0,-999.0,37,-99.99,,,-99.99,meteohub,2013-04-27 23:22:00,
2013-04-27 19:27:00,67.8,41.4,29.96,North,-999,-999.0,-999.0,38,-99.99,,,-99.99,meteohub,2013-04-27 23:27:00,
2013-04-27 19:32:00,67.6,41.2,29.96,North,-999,-999.0,-999.0,38,-99.99,,,-99.99,meteohub,2013-04-27 23:32:00,
2013-04-27 19:37:00,67.5,41.7,29.96,North,-999,-999.0,-999.0,39,-99.99,,,-99.99,meteohub,2013-04-27 23:37:00,
2013-04-27 19:42:00,67.3,41.5,29.96,North,-999,-999.0,-999.0,39,-99.99,,,-99.99,meteohub,2013-04-27 23:42:00,
2013-04-27 19:47:00,67.1,42.1,29.96,North,-999,-999.0,-999.0,40,-99.99,,,-99.99,meteohub,2013-04-27 23:47:00,
2013-04-27 19:52:00,66.9,42.4,29.96,North,-999,-999.0,-999.0,41,-99.99,,,-99.99,meteohub,2013-04-27 23:52:00,
2013-04-27 19:57:00,66.7,43.0,29.96,North,-999,-999.0,-999.0,42,-99.99,,,-99.99,meteohub,2013-04-27 23:57:00,
2013-04-27 20:02:00,66.4,42.6,29.96,North,-999,-999.0,-999.0,42,-99.99,,,-99.99,meteohub,2013-04-28 00:02:00,
2013-04-27 20:07:00,66.2,43.0,29.96,North,-999,-999.0,-999.0,43,-99.99,,,-99.99,meteohub,2013-04-28 00:07:00,
2013-04-27 20:12:00,66.0,43.5,29.96,North,-999,-999.0,-999.0,44,-99.99,,,-99.99,meteohub,2013-04-28 00:12:00,
2013-04-27 20:17:00,65.8,43.3,29.96,North,-999,-999.0,-999.0,44,-99.99,,,-99.99,meteohub,2013-04-28 00:17:00,
2013-04-27 20:22:00,65.5,43.0,29.96,North,-999,-999.0,-999.0,44,-99.99,,,-99.99,meteohub,2013-04-28 00:22:00,
2013-04-27 20:27:00,65.5,43.5,29.96,North,-999,-999.0,-999.0,45,-99.99,,,-99.99,meteohub,2013-04-28 00:27:00,
2013-04-27 20:32:00,65.3,43.5,29.96,North,-999,-999.0,-999.0,45,-99.99,,,-99.99,meteohub,2013-04-28 00:32:00,
2013-04-27 20:37:00,65.1,43.3,29.96,North,-999,-999.0,-999.0,45,-99.99,,,-99.99,meteohub,2013-04-28 00:37:00,
2013-04-27 20:42:00,65.1,43.3,29.96,North,-999,-999.0,-999.0,45,-99.99,,,-99.99,meteohub,2013-04-28 00:42:00,
2013-04-27 20:47:00,64.9,43.7,29.96,North,-999,-999.0,-999.0,46,-99.99,,,-99.99,meteohub,2013-04-28 00:47:00,
2013-04-27 20:52:00,64.6,43.9,29.96,North,-999,-999.0,-999.0,47,-99.99,,,-99.99,meteohub,2013-04-28 00:52:00,
2013-04-27 20:57:00,64.4,43.7,29.96,North,-999,-999.0,-999.0,47,-99.99,,,-99.99,meteohub,2013-04-28 00:57:00,
2013-04-27 21:02:00,64.4,43.7,29.96,North,-999,-999.0,-999.0,47,-99.99,,,-99.99,meteohub,2013-04-28 01:02:00,
2013-04-27 21:07:00,64.2,44.1,29.96,North,-999,-999.0,-999.0,48,-99.99,,,-99.99,meteohub,2013-04-28 01:07:00,
2013-04-27 21:12:00,64.2,44.1,29.96,North,-999,-999.0,-999.0,48,-99.99,,,-99.99,meteohub,2013-04-28 01:12:00,
2013-04-27 21:17:00,64.0,44.1,29.96,North,-999,-999.0,-999.0,48,-99.99,,,-99.99,meteohub,2013-04-28 01:17:00,
2013-04-27 21:22:00,64.0,44.6,29.96,North,-999,-999.0,-999.0,49,-99.99,,,-99.99,meteohub,2013-04-28 01:22:00,
2013-04-27 21:27:00,63.9,44.4,29.96,North,-999,-999.0,-999.0,49,-99.99,,,-99.99,meteohub,2013-04-28 01:27:00,
2013-04-27 21:32:00,63.7,44.8,29.96,North,-999,-999.0,-999.0,50,-99.99,,,-99.99,meteohub,2013-04-28 01:32:00,
2013-04-27 21:37:00,63.5,44.6,29.96,North,-999,-999.0,-999.0,50,-99.99,,,-99.99,meteohub,2013-04-28 01:37:00,
2013-04-27 21:42:00,63.5,44.6,29.96,North,-999,-999.0,-999.0,50,-99.99,,,-99.99,meteohub,2013-04-28 01:42:00,
2013-04-27 21:47:00,63.5,44.6,29.96,North,-999,-999.0,-999.0,50,-99.99,,,-99.99,meteohub,2013-04-28 01:47:00,
2013-04-27 21:52:00,63.3,45.0,29.96,North,-999,-999.0,-999.0,51,-99.99,,,-99.99,meteohub,2013-04-28 01:52:00,
2013-04-27 21:57:00,63.3,45.0,29.96,North,-999,-999.0,-999.0,51,-99.99,,,-99.99,meteohub,2013-04-28 01:57:00,
2013-04-27 22:02:00,63.1,44.8,29.96,North,-999,-999.0,-999.0,51,-99.99,,,-99.99,meteohub,2013-04-28 02:02:00,
2013-04-27 22:07:00,63.1,45.3,29.96,North,-999,-999.0,-999.0,52,-99.99,,,-99.99,meteohub,2013-04-28 02:07:00,
2013-04-27 22:12:00,63.0,45.1,29.96,North,-999,-999.0,-999.0,52,-99.99,,,-99.99,meteohub,2013-04-28 02:12:00,
2013-04-27 22:17:00,63.0,45.5,29.96,North,-999,-999.0,-999.0,53,-99.99,,,-99.99,meteohub,2013-04-28 02:17:00,
2013-04-27 22:22:00,62.8,45.9,29.96,North,-999,-999.0,-999.0,54,-99.99,,,-99.99,meteohub,2013-04-28 02:22:00,
2013-04-27 22:27:00,62.8,45.9,29.96,North,-999,-999.0,-999.0,54,-99.99,,,-99.99,meteohub,2013-04-28 02:27:00,
2013-04-27 22:32:00,62.6,46.8,29.96,North,-999,-999.0,-999.0,56,-99.99,,,-99.99,meteohub,2013-04-28 02:32:00,
2013-04-27 22:37:00,62.4,46.6,29.96,North,-999,-999.0,-999.0,56,-99.99,,,-99.99,meteohub,2013-04-28 02:37:00,
2013-04-27 22:42:00,62.2,46.8,29.96,North,-999,-999.0,-999.0,57,-99.99,,,-99.99,meteohub,2013-04-28 02:42:00,
2013-04-27 22:47:00,62.2,47.3,29.96,North,-999,-999.0,-999.0,58,-99.99,,,-99.99,meteohub,2013-04-28 02:47:00,
2013-04-27 22:52:00,62.1,47.7,29.96,North,-999,-999.0,-999.0,59,-99.99,,,-99.99,meteohub,2013-04-28 02:52:00,
2013-04-27 22:57:00,61.9,47.5,29.96,North,-999,-999.0,-999.0,59,-99.99,,,-99.99,meteohub,2013-04-28 02:57:00,
2013-04-27 23:02:00,61.7,47.7,29.96,North,-999,-999.0,-999.0,60,-99.99,,,-99.99,meteohub,2013-04-28 03:02:00,
2013-04-27 23:07:00,61.3,47.8,29.93,North,-999,-999.0,-999.0,61,-99.99,,,-99.99,meteohub,2013-04-28 03:07:00,
2013-04-27 23:12:00,61.0,48.7,29.93,North,-999,-999.0,-999.0,64,-99.99,,,-99.99,meteohub,2013-04-28 03:12:00,
2013-04-27 23:17:00,61.0,48.7,29.93,North,-999,-999.0,-999.0,64,-99.99,,,-99.99,meteohub,2013-04-28 03:17:00,
2013-04-27 23:22:00,61.2,49.3,29.96,North,-999,-999.0,-999.0,65,-99.99,,,-99.99,meteohub,2013-04-28 03:22:00,
2013-04-27 23:27:00,61.2,48.9,29.96,North,-999,-999.0,-999.0,64,-99.99,,,-99.99,meteohub,2013-04-28 03:27:00,
2013-04-27 23:32:00,61.2,48.9,29.96,North,-999,-999.0,-999.0,64,-99.99,,,-99.99,meteohub,2013-04-28 03:32:00,
2013-04-27 23:37:00,61.2,48.9,29.93,North,-999,-999.0,-999.0,64,-99.99,,,-99.99,meteohub,2013-04-28 03:37:00,
2013-04-27 23:42:00,61.2,48.9,29.93,North,-999,-999.0,-999.0,64,-99.99,,,-99.99,meteohub,2013-04-28 03:42:00,
2013-04-27 23:47:00,61.0,48.7,29.93,North,-999,-999.0,-999.0,64,-99.99,,,-99.99,meteohub,2013-04-28 03:47:00,
2013-04-27 23:52:00,61.2,49.6,29.93,North,-999,-999.0,-999.0,66,-99.99,,,-99.99,meteohub,2013-04-28 03:52:00,
2013-04-27 23:57:00,61.2,49.3,29.93,North,-999,-999.0,-999.0,65,-99.99,,,-99.99,meteohub,2013-04-28 03:57:00,